Change the Weather History Date:

Saturday, December 17, 2011

  Actual Average Record
Temperature  
Mean Temperature 36 °F 33 °F  
Max Temperature 38 °F 41 °F 61 °F (2006)
Min Temperature 33 °F 26 °F 14 °F (2010)
Degree Days  
Heating Degree Days 29 32  
Month to date heating degree days 416 496  
Since 1 July heating degree days 1307 1501  
Cooling Degree Days 0 0  
Month to date cooling degree days 0 0  
Year to date cooling degree days 1313 969  
Moisture  
Dew Point 24 °F    
Average Humidity 61    
Maximum Humidity 70    
Minimum Humidity 52    
Precipitation  
Precipitation T in 0.08 in 0.38 in (2001)
Month to date precipitation 1.56 1.70  
Year to date precipitation 45.54 38.10  
Sea Level Pressure  
Sea Level Pressure 30.23 in    
Wind  
Wind Speed 9 mph (WNW)    
Max Wind Speed 17 mph    
Max Gust Speed 21 mph    
Visibility 9 miles    
Events Snow    
T = Trace of Precipitation, MM = Missing Value Source: NWS Daily Summary

Daily Weather History Graph

Daily Weather History Graph

Search for Another Location

Airport or City:

Trip Planner

Search our weather history database for the weather conditions in past years. The results will help you decide how hot, cold, wet, or windy it might be!

Date:

Astronomy

Dec. 17, 2011 Rise Set
Actual Time 7:25 AM EST 4:48 PM EST
Civil Twilight 6:55 AM EST 5:18 PM EST
Nautical Twilight 6:21 AM EST 5:52 PM EST
Astronomical Twilight 5:48 AM EST 6:25 PM EST
Moon No Moon Rise 11:41 AM EST (12/17)
Length of Visible Light 10h 22m
Length of Day
9h 22m
Waning Gibbous, 54% of the Moon is Illuminated
Dec 17
Waning Gibbous
Dec 17
Last Quarter
Dec 24
New
Jan 1
First Quarter
Jan 9
Full

Hourly Weather History & Observations

Time (EST) Temp. Windchill Dew Point Humidity Pressure Visibility Wind Dir Wind Speed Gust Speed Precip Events Conditions
12:53 AM 36.0 °F 33.3 °F 25.0 °F 64% 30.23 in 10.0 mi NNW 3.5 mph - N/A   Overcast
1:53 AM 35.1 °F 28.6 °F 24.1 °F 64% 30.21 in 10.0 mi NNW 8.1 mph - N/A   Overcast
2:53 AM 36.0 °F 31.1 °F 24.1 °F 62% 30.21 in 10.0 mi NNW 5.8 mph - N/A   Overcast
3:53 AM 36.0 °F 30.3 °F 24.1 °F 62% 30.22 in 10.0 mi NW 6.9 mph - N/A   Overcast
4:53 AM 36.0 °F 29.0 °F 23.0 °F 59% 30.22 in 10.0 mi NW 9.2 mph - N/A   Overcast
5:53 AM 35.1 °F 26.9 °F 21.0 °F 57% 30.23 in 10.0 mi NW 11.5 mph - N/A   Overcast
6:53 AM 35.1 °F 27.9 °F 21.9 °F 59% 30.25 in 10.0 mi NW 9.2 mph - N/A   Overcast
7:53 AM 35.1 °F 27.9 °F 21.0 °F 57% 30.25 in 10.0 mi NW 9.2 mph - N/A   Overcast
8:53 AM 35.1 °F 27.9 °F 21.9 °F 59% 30.25 in 10.0 mi NW 9.2 mph - N/A   Overcast
9:53 AM 36.0 °F 27.5 °F 21.9 °F 57% 30.26 in 10.0 mi WNW 12.7 mph - N/A   Overcast
10:53 AM 36.0 °F 28.5 °F 21.9 °F 57% 30.25 in 10.0 mi NW 10.4 mph - N/A   Overcast
11:53 AM 36.0 °F 27.5 °F 21.9 °F 57% 30.25 in 10.0 mi WNW 12.7 mph - N/A   Overcast
12:53 PM 37.0 °F 30.4 °F 21.9 °F 54% 30.21 in 10.0 mi NW 9.2 mph - N/A   Overcast
1:53 PM 37.9 °F 29.6 °F 21.9 °F 53% 30.20 in 10.0 mi WNW 13.8 mph - N/A   Mostly Cloudy
2:53 PM 36.0 °F 26.7 °F 23.0 °F 59% 30.20 in 10.0 mi NW 15.0 mph - N/A   Overcast
3:53 PM 33.1 °F 26.1 °F 27.0 °F 78% 30.22 in 3.0 mi NW 8.1 mph - 0.00 in Snow Light Snow
4:28 PM 32.0 °F 26.4 °F 28.4 °F 87% 30.18 in 2.5 mi West 5.8 mph - 0.00 in Snow Light Snow
4:40 PM 32.0 °F 25.6 °F 28.4 °F 87% 30.18 in 3.0 mi West 6.9 mph - 0.00 in Snow Light Snow
4:53 PM 32.0 °F 27.5 °F 28.9 °F 88% 30.23 in 6.0 mi West 4.6 mph - 0.00 in   Overcast
5:53 PM 32.0 °F 27.5 °F 28.0 °F 85% 30.25 in 7.0 mi SW 4.6 mph - 0.00 in   Overcast
7:53 PM 32.0 °F - 26.1 °F 79% 30.24 in 10.0 mi Calm Calm - N/A   Overcast
8:53 PM 28.9 °F 22.8 °F 24.1 °F 82% 30.23 in 9.0 mi West 5.8 mph - N/A   Partly Cloudy
9:53 PM 28.9 °F - 23.0 °F 78% 30.24 in 10.0 mi Calm Calm - N/A   Overcast
10:53 PM 28.0 °F 24.2 °F 23.0 °F 81% 30.24 in 9.0 mi SSW 3.5 mph - N/A   Overcast
11:53 PM 30.9 °F - 21.9 °F 69% 30.23 in 10.0 mi Calm Calm - N/A   Overcast